This is the latest recevied weather packets stored in our database for station/object N9BLE. If no packets are shown the sender has not sent any weather packets the latest 10 day(s).
| Time | Temp. | Humidity | Pressure | Rain* | Wind** | Luminosity | Snow |
|---|---|---|---|---|---|---|---|
| 1778117113 | 7.22° C | 51% | 1018.8 hPa | 0 mm | - | 0 W/m² | - |
| 1778116809 | 7.22° C | 51% | 1018.8 hPa | 0 mm | - | 0 W/m² | - |
| 1778116507 | 7.22° C | 50% | 1018.8 hPa | 0 mm | - | 0 W/m² | - |
| 1778116202 | 7.78° C | 48% | 1018.8 hPa | 0 mm | - | 1 W/m² | - |
| 1778115896 | 7.78° C | 48% | 1018.9 hPa | 0 mm | - | 1 W/m² | - |
| 1778115594 | 7.78° C | 48% | 1018.6 hPa | 0 mm | - | 2 W/m² | - |
| 1778115291 | 8.33° C | 48% | 1019 hPa | 0 mm | - | 3 W/m² | - |
| 1778114987 | 8.33° C | 46% | 1018.8 hPa | 0 mm | - | 5 W/m² | - |
| 1778114684 | 8.33° C | 47% | 1018.8 hPa | 0 mm | - | 7 W/m² | - |
| 1778114382 | 8.33° C | 45% | 1018.7 hPa | 0 mm | - | 9 W/m² | - |
| 1778114077 | 8.89° C | 44% | 1018.8 hPa | 0 mm | - | 12 W/m² | - |
| 1778113772 | 8.89° C | 45% | 1018.8 hPa | 0 mm | - | 15 W/m² | - |
| 1778113468 | 8.89° C | 43% | 1018.6 hPa | 0 mm | - | 17 W/m² | - |
| 1778113166 | 9.44° C | 43% | 1018.8 hPa | 0 mm | - | 19 W/m² | - |
| 1778112862 | 9.44° C | 44% | 1018.7 hPa | 0 mm | - | 23 W/m² | - |
| 1778112560 | 9.44° C | 42% | 1018.6 hPa | 0 mm | - | 25 W/m² | - |
| 1778112255 | 10° C | 41% | 1018.5 hPa | 0 mm | - | 30 W/m² | - |
| 1778111951 | 10° C | 41% | 1018.5 hPa | 0 mm | - | 33 W/m² | - |
| 1778111649 | 10° C | 41% | 1018.4 hPa | 0 mm | - | 43 W/m² | - |
| 1778111344 | 10.56° C | 40% | 1018.5 hPa | 0 mm | - | 46 W/m² | - |
| 1778111043 | 10.56° C | 40% | 1018.5 hPa | 0 mm | - | 50 W/m² | - |
| 1778110740 | 10.56° C | 40% | 1018.4 hPa | 0 mm | - | 54 W/m² | - |
| 1778110435 | 11.11° C | 38% | 1018.4 hPa | 0 mm | - | 59 W/m² | - |
| 1778110132 | 11.11° C | 40% | 1018.3 hPa | 0 mm | - | 73 W/m² | - |
| 1778109828 | 11.11° C | 39% | 1018.1 hPa | 0 mm | - | 69 W/m² | - |
* Rain latest hour (hover to see other rain measurements)
** Current wind speed in m/s (hover to see current wind gust speed)